Tracking 26443 objects as of 5-Dec-2022
HD Live streaming from Space Station
objects crossing your sky now

RADUGA 1-5

Track RADUGA 1-5 now!
RADUGA 1-5 is classified as:


NORAD ID: 26477
Int'l Code: 2000-049A
Perigee: 35,760.0 km
Apogee: 35,800.8 km
Inclination: 13.2 °
Period: 1,435.4 minutes
Semi major axis: 42151 km
RCS: 10 m2 (large)
Launch date: August 28, 2000
Source: Commonwealth of Independent States (former USSR) (CIS)
Launch site: TYURATAM MISSILE AND SPACE COMPLEX (TTMTR)

Military communication.
aabbcc
Your satellite tracking list
Your tracking list is empty




NASA's NSSDC Master Catalog

Two Line Element Set (TLE):
1 26477U 00049A   22338.19041030  .00000064  00000-0  00000-0 0  9995
2 26477  13.2257  17.2945 0004842  69.2758 107.9834  1.00319537 81472
Source of the keplerian elements: AFSPC